Location: Joplin
(37.0842°N, 94.5131°W)
Time: 17:58:12
(UTC-05:00)

Envisat - Pass Details

Date: 29 September 2021
Orbit: 764 x 766 km, 98.2° (Epoch: 20 October)

Event Time Altitude Azimuth Distance (km) Brightness Sun altitude
Rises 06:30:36 0° 11° (N) 3,236 6.4 -9.1°
Reaches altitude 10° 06:32:54 10° 11° (N) 2,306 5.7 -8.6°
Maximum altitude 06:38:00 83° 284° (WNW) 774 3.0 -7.6°
Drops below altitude 10° 06:43:03 10° 197° (SSW) 2,290 5.3 -6.6°
Sets 06:45:20 0° 196° (SSW) 3,212 6.0 -6.2°
